#timestamp,LO_Frequency,Hit,StdDev 
1556794815.8,286047004.1,N
1556794835.6,286047002.6,N
1556794855.4,286046999.8,N
1556794875.3,286047000.7,N
1556794895.1,286046999.1,N
1556794915.9,286046996.7,N
1556794935.7,286047001.1,N
1556794955.5,286046999.6,N
1556794975.4,286046998.8,N
1556794995.2,286046998.3,N
1556795015.0,286046999.9,N
1556795016.0,286046999.9,N
1556795035.8,286047000.1,N
1556795055.6,286047000.9,N
1556795075.5,286047000.9,N
1556795095.3,286047001.2,N
1556795115.1,286047000.3,N
1556795135.9,286047002.5,N
1556795155.7,286047001.7,N
1556795175.5,286047001.7,N
1556795195.4,286047004.1,N
1556795215.2,286047003.7,N
1556795235.1,286047001.6,N
1556795236.0,286047001.6,N
1556795255.8,286047001.5,N
1556795275.6,286047001.5,N
1556795295.5,286047002.3,N
1556795315.3,286047002.5,N
1556795335.1,286047002.3,N
1556795355.9,286047002.7,N
1556795375.7,286046998.7,N
1556795395.6,286046999.0,N
1556795415.4,286046999.2,N
1556795435.2,286046999.3,N
1556795455.1,286046998.9,N
1556795456.0,286046998.9,N
1556795475.8,286047001.1,N
1556795495.7,286047002.7,N
1556795515.5,286047001.7,N
1556795535.3,286047005.6,Y
1556795555.2,286047004.2,P
1556795575.0,286047003.9,N
1556795575.9,286047003.9,N
1556795595.8,286047001.3,N
1556795615.6,286047001.3,N
1556795635.4,286046999.8,N
1556795655.3,286047001.1,N
1556795675.1,286047001.0,N
1556795695.8,286046999.9,N
1556795715.7,286047000.1,N
1556795735.5,286047000.9,N
1556795755.3,286047002.6,N
1556795775.2,286047002.6,N
1556795795.0,286047002.8,N
1556795795.9,286047002.8,N
1556795815.8,286047000.0,N
1556795835.6,286046998.2,N
1556795855.4,286047000.5,N
1556795875.3,286046999.8,N
1556795895.1,286046996.7,N
1556795915.8,286046996.8,N
1556795935.7,286046998.1,N
1556795955.5,286047001.0,N
1556795975.4,286046999.9,N
1556795995.2,286046999.9,N
1556796015.0,286046999.8,N
1556796015.9,286046999.8,N
1556796035.8,286047001.6,N
1556796055.6,286047002.3,N
1556796075.4,286047000.8,N
1556796095.3,286047000.9,N
1556796115.1,286047000.6,N
1556796135.9,286046999.9,N
1556796155.7,286047001.2,N
1556796175.5,286047001.1,N
1556796195.4,286047001.0,N
1556796215.2,286047000.4,N
1556796235.0,286047000.2,N
1556796235.9,286047000.2,N
1556796255.8,286047001.8,N
1556796275.6,286047005.8,Y
1556796295.5,286047005.8,P
1556796315.3,286047003.9,N
1556796335.1,286047001.5,N
1556796355.9,286047002.5,N
1556796375.7,286047001.6,N
1556796395.5,286047002.4,N
1556796415.4,286047002.4,N
1556796435.2,286046999.9,N
1556796455.1,286047002.4,N
1556796456.0,286047002.4,N
1556796475.8,286047001.7,N
1556796495.6,286047003.0,N
1556796515.5,286047003.1,N
1556796535.3,286047003.7,N
1556796555.4,286047001.7,N
1556796575.2,286047001.8,N
1556796595.1,286047003.8,N
1556796596.0,286047003.8,N
1556796615.8,286047006.0,Y
1556796635.6,286047002.7,P
1556796655.5,286046999.8,N
1556796675.3,286047001.4,N
1556796695.2,286047004.4,Y
1556796715.9,286047003.3,P
1556796735.7,286047007.4,P
1556796755.6,286047007.4,P
1556796775.4,286047005.0,N
1556796795.2,286047005.4,N
1556796815.1,286047003.3,N
1556796816.0,286047003.3,N
1556796835.8,286047002.2,N
1556796855.7,286046999.9,N
1556796875.5,286047002.0,N
1556796895.3,286047001.9,N
1556796915.2,286047000.6,N
1556796935.0,286046999.2,N
1556796935.9,286046999.2,N
1556796955.8,286046998.6,N
1556796975.6,286046999.3,N
1556796995.4,286046999.2,N
1556797015.3,286046998.5,N
1556797035.1,286046998.6,N
1556797055.9,286046996.5,N
1556797075.7,286046997.1,N
1556797095.5,286046999.5,N
1556797115.4,286046996.8,N
1556797135.2,286047001.0,N
1556797185.1,286046999.3,E
1556797195.9,286046998.3,N
1556797215.7,286046999.1,P
1556797235.6,286046996.8,P
1556797255.4,286046995.0,Y
1556797275.2,286046997.2,P
1556797295.1,286046996.9,P
1556797296.0,286046996.9,P
1556797315.8,286046997.7,Y
1556797335.7,286047001.2,P
1556797355.5,286046999.6,N
1556797375.3,286046997.0,N
1556797395.2,286046999.0,N
1556797415.0,286046997.0,N
1556797415.9,286046997.0,N
1556797435.7,286046999.3,N
1556797455.6,286046998.6,N
1556797475.4,286046998.2,N
1556797495.3,286046998.2,N
1556797515.1,286046999.3,N
1556797516.0,286046999.3,N
1556797535.8,286046999.1,N
1556797555.7,286046999.3,N
1556797575.5,286046999.1,N
1556797595.3,286047000.8,N
1556797615.2,286047000.0,N
1556797635.0,286047002.2,N
1556797635.9,286047002.2,N
1556797655.8,286047002.2,N
1556797675.6,286046998.3,N
1556797695.4,286046999.4,N
1556797715.3,286046999.4,N
1556797735.1,286046998.2,N
1556797755.8,286046999.3,N
1556797775.7,286046998.6,N
1556797795.5,286046999.2,N
1556797815.4,286046999.2,N
1556797835.2,286046997.2,N
1556797855.0,286046999.5,N
1556797855.9,286046999.5,N
1556797875.8,286046998.8,N
1556797895.6,286046999.2,N
1556797915.4,286046999.4,N
1556797935.3,286046999.5,N
1556797955.6,286046997.3,N
1556797975.4,286046997.7,N
1556797995.3,286046996.8,N
1556798015.1,286046997.1,N
1556798035.9,286046995.0,Y
1556798055.7,286046997.2,P
1556798075.5,286046999.2,N
1556798095.4,286046999.3,N
1556798115.2,286046996.9,Y
1556798135.0,286047000.4,P
1556798135.9,286047000.4,N
1556798155.8,286047000.1,N
1556798175.6,286046999.7,N
1556798195.5,286047000.4,N
1556798215.3,286047000.6,N
1556798235.1,286047002.2,Y
1556798255.9,286046999.8,P
1556798275.7,286047002.1,P
1556798295.5,286047001.8,N
1556798315.4,286047000.5,N
1556798335.2,286047002.0,N
1556798355.1,286047002.0,N
1556798356.0,286047002.0,N
1556798375.8,286047002.1,N
1556798395.6,286047002.3,N
